| time (UTC) | temp F | wind direction | speed knots | gust knots | rain 1hr in | rain 24hr in | rain mn in | humidity % | barometer mb |
| 20260507143501 | 54 | 6 | 0.0 | 1.7 | 0.00 | 0.56 | 0.53 | 95 | 1012.5 |
| 20260507143000 | 54 | 6 | 0.0 | 2.6 | 0.00 | 0.57 | 0.53 | 95 | 1012.5 |
| 20260507142458 | 54 | 16 | 0.9 | 2.6 | 0.00 | 0.58 | 0.53 | 95 | 1012.2 |
| 20260507141956 | 54 | 48 | 0.9 | 3.5 | 0.00 | 0.59 | 0.53 | 95 | 1012.2 |
| 20260507141455 | 54 | 70 | 1.7 | 3.5 | 0.00 | 0.60 | 0.53 | 95 | 1012.2 |
| 20260507140953 | 54 | 64 | 0.0 | 3.5 | 0.00 | 0.60 | 0.53 | 95 | 1012.2 |
| 20260507140452 | 54 | 78 | 0.9 | 3.5 | 0.00 | 0.61 | 0.53 | 95 | 1011.9 |
| 20260507135951 | 54 | 44 | 0.0 | 3.5 | 0.00 | 0.62 | 0.53 | 95 | 1011.9 |
| 20260507135449 | 54 | 44 | 0.0 | 3.5 | 0.00 | 0.62 | 0.53 | 95 | 1011.9 |
| 20260507134947 | 54 | 27 | 0.9 | 1.7 | 0.00 | 0.64 | 0.53 | 95 | 1011.9 |
| 20260507134445 | 54 | 23 | 0.0 | 3.5 | 0.00 | 0.65 | 0.53 | 95 | 1011.9 |
| 20260507133943 | 54 | 23 | 0.9 | 3.5 | 0.00 | 0.66 | 0.53 | 95 | 1011.9 |
| 20260507133441 | 54 | 5 | 0.0 | 3.5 | 0.00 | 0.68 | 0.53 | 95 | 1011.9 |
| 20260507132939 | 54 | 58 | 1.7 | 3.5 | 0.00 | 0.71 | 0.53 | 95 | 1011.9 |
| 20260507132437 | 54 | 72 | 0.9 | 0.9 | 0.00 | 0.73 | 0.53 | 96 | 1011.9 |
| 20260507131934 | 54 | 69 | 0.9 | 0.9 | 0.00 | 0.73 | 0.53 | 96 | 1011.9 |
| 20260507131433 | 55 | 84 | 0.0 | 0.0 | 0.00 | 0.74 | 0.53 | 96 | 1011.9 |
| 20260507130932 | 54 | 85 | 0.0 | 0.0 | 0.00 | 0.76 | 0.53 | 96 | 1011.5 |
| 20260507130431 | 54 | 85 | 0.0 | 0.9 | 0.00 | 0.78 | 0.53 | 96 | 1011.5 |
| 20260507125928 | 54 | 84 | 0.0 | 0.9 | 0.00 | 0.81 | 0.53 | 96 | 1011.5 |
| 20260507125427 | 54 | 84 | 0.0 | 0.9 | 0.00 | 0.82 | 0.53 | 96 | 1011.5 |
| 20260507124925 | 54 | 85 | 0.0 | 0.9 | 0.00 | 0.84 | 0.53 | 96 | 1011.5 |
| 20260507124424 | 54 | 84 | 0.0 | 0.0 | 0.00 | 0.85 | 0.53 | 96 | 1011.9 |
| 20260507123820 | 54 | 84 | 0.0 | 0.0 | 0.00 | 0.88 | 0.53 | 96 | 1011.9 |
| 20260507123319 | 54 | 85 | 0.0 | 0.0 | 0.00 | 0.93 | 0.53 | 96 | 1011.9 |
| 20260507122746 | 54 | 84 | 0.0 | 0.0 | 0.00 | 0.97 | 0.53 | 96 | 1011.9 |
| 20260507122245 | 54 | 84 | 0.0 | 0.0 | 0.00 | 0.99 | 0.53 | 96 | 1011.5 |
| 20260507121743 | 54 | 85 | 0.0 | 0.0 | 0.00 | 1.01 | 0.53 | 96 | 1011.5 |
| 20260507121242 | 54 | 84 | 0.0 | 0.0 | 0.00 | 1.04 | 0.53 | 96 | 1011.5 |
| 20260507120739 | 54 | 85 | 0.0 | 0.0 | 0.00 | 1.05 | 0.53 | 96 | 1011.5 |
| 20260507120238 | 54 | 85 | 0.0 | 0.0 | 0.00 | 1.06 | 0.53 | 96 | 1011.5 |
| 20260507115736 | 54 | 84 | 0.0 | 0.0 | 0.00 | 1.07 | 0.53 | 96 | 1011.2 |
| 20260507115233 | 54 | 84 | 0.0 | 0.9 | 0.00 | 1.08 | 0.53 | 96 | 1011.2 |
| 20260507114732 | 54 | 84 | 0.0 | 0.9 | 0.00 | 1.09 | 0.53 | 96 | 1011.2 |
| 20260507114230 | 53 | 84 | 0.0 | 0.9 | 0.00 | 1.10 | 0.53 | 96 | 1011.2 |
| 20260507113729 | 53 | 84 | 0.0 | 0.9 | 0.00 | 1.10 | 0.53 | 96 | 1010.8 |
| 20260507113228 | 54 | 113 | 0.0 | 0.9 | 0.00 | 1.10 | 0.53 | 96 | 1011.2 |
| 20260507112655 | 54 | 118 | 0.0 | 0.9 | 0.00 | 1.11 | 0.53 | 96 | 1011.2 |
| 20260507112153 | 54 | 119 | 0.9 | 1.7 | 0.00 | 1.11 | 0.53 | 96 | 1011.2 |
| 20260507111652 | 54 | 59 | 0.9 | 1.7 | 0.01 | 1.11 | 0.53 | 96 | 1010.5 |
| 20260507111151 | 54 | 17 | 0.0 | 1.7 | 0.01 | 1.11 | 0.53 | 96 | 1010.5 |
| 20260507110616 | 54 | 298 | 0.9 | 1.7 | 0.01 | 1.11 | 0.53 | 96 | 1010.5 |
| 20260507110043 | 54 | 60 | 0.9 | 0.9 | 0.01 | 1.11 | 0.53 | 96 | 1010.2 |
| 20260507105541 | 54 | 59 | 0.9 | 0.9 | 0.01 | 1.12 | 0.53 | 96 | 1010.2 |
| 20260507105040 | 54 | 59 | 0.0 | 1.7 | 0.01 | 1.12 | 0.53 | 96 | 1010.5 |
| 20260507104539 | 54 | 59 | 0.0 | 1.7 | 0.01 | 1.12 | 0.53 | 96 | 1010.5 |
| 20260507104038 | 54 | 59 | 0.9 | 1.7 | 0.01 | 1.12 | 0.53 | 96 | 1010.2 |
| 20260507103537 | 54 | 65 | 0.0 | 0.9 | 0.01 | 1.12 | 0.53 | 96 | 1010.5 |
| 20260507103036 | 54 | 65 | 0.0 | 0.9 | 0.01 | 1.12 | 0.53 | 96 | 1010.5 |
| 20260507102535 | 54 | 70 | 0.9 | 0.9 | 0.01 | 1.12 | 0.53 | 96 | 1010.5 |
| 20260507102033 | 55 | 17 | 0.0 | 0.9 | 0.00 | 1.11 | 0.52 | 96 | 1010.8 |
| 20260507101459 | 55 | 18 | 0.0 | 0.9 | 0.01 | 1.11 | 0.52 | 96 | 1010.5 |
| 20260507100957 | 55 | 17 | 0.0 | 0.9 | 0.01 | 1.11 | 0.52 | 95 | 1010.5 |
| 20260507100455 | 55 | 28 | 0.9 | 0.9 | 0.01 | 1.11 | 0.52 | 96 | 1010.5 |
| 20260507095922 | 55 | 34 | 0.0 | 0.0 | 0.01 | 1.11 | 0.52 | 96 | 1010.5 |
| 20260507095421 | 55 | 33 | 0.0 | 0.0 | 0.01 | 1.11 | 0.52 | 96 | 1010.8 |
| 20260507094919 | 55 | 33 | 0.0 | 0.0 | 0.01 | 1.11 | 0.52 | 95 | 1010.5 |
| 20260507094418 | 55 | 46 | 0.0 | 0.0 | 0.02 | 1.11 | 0.52 | 96 | 1010.8 |
| 20260507093916 | 55 | 45 | 0.0 | 0.0 | 0.02 | 1.11 | 0.52 | 96 | 1010.8 |
| 20260507093415 | 55 | 46 | 0.0 | 0.0 | 0.03 | 1.11 | 0.52 | 95 | 1010.5 |
| 20260507092841 | 55 | 45 | 0.0 | 0.9 | 0.03 | 1.11 | 0.52 | 95 | 1010.2 |
| 20260507092308 | 55 | 46 | 0.0 | 0.9 | 0.03 | 1.11 | 0.52 | 95 | 1010.2 |
| 20260507091807 | 55 | 45 | 0.0 | 0.9 | 0.02 | 1.10 | 0.51 | 95 | 1010.2 |
| 20260507091306 | 55 | 55 | 0.9 | 0.9 | 0.02 | 1.10 | 0.51 | 95 | 1010.2 |
| 20260507090805 | 55 | 56 | 0.0 | 0.0 | 0.02 | 1.10 | 0.51 | 95 | 1010.2 |
| 20260507090303 | 55 | 56 | 0.0 | 0.9 | 0.02 | 1.10 | 0.51 | 95 | 1010.2 |
| 20260507085801 | 55 | 56 | 0.0 | 0.9 | 0.02 | 1.10 | 0.51 | 95 | 1010.2 |
| 20260507085228 | 55 | 57 | 0.0 | 0.9 | 0.02 | 1.10 | 0.51 | 95 | 1010.2 |
| 20260507084728 | 55 | 57 | 0.0 | 0.9 | 0.02 | 1.10 | 0.51 | 95 | 1010.2 |
| 20260507084226 | 55 | 56 | 0.0 | 0.9 | 0.01 | 1.09 | 0.50 | 95 | 1010.5 |
| 20260507083725 | 55 | 66 | 0.9 | 0.9 | 0.01 | 1.09 | 0.50 | 95 | 1010.2 |
| 20260507083223 | 55 | 70 | 0.0 | 0.9 | 0.00 | 1.08 | 0.49 | 95 | 1010.5 |
| 20260507082722 | 55 | 69 | 0.0 | 0.9 | 0.00 | 1.08 | 0.49 | 95 | 1010.8 |
| 20260507082220 | 55 | 70 | 0.0 | 0.9 | 0.00 | 1.08 | 0.49 | 95 | 1010.5 |
| 20260507081719 | 55 | 69 | 0.0 | 0.9 | 0.00 | 1.08 | 0.49 | 95 | 1010.2 |
| 20260507081217 | 55 | 69 | 0.0 | 0.9 | 0.00 | 1.08 | 0.49 | 95 | 1010.2 |
| 20260507080716 | 56 | 68 | 0.9 | 0.9 | 0.00 | 1.08 | 0.49 | 95 | 1010.2 |
| 20260507080215 | 56 | 68 | 0.0 | 0.9 | 0.00 | 1.08 | 0.49 | 95 | 1010.2 |
| 20260507075712 | 56 | 84 | 0.0 | 0.0 | 0.00 | 1.08 | 0.49 | 95 | 1010.2 |
| 20260507075211 | 56 | 84 | 0.0 | 0.0 | 0.00 | 1.08 | 0.49 | 95 | 1010.5 |
| 20260507074637 | 56 | 85 | 0.0 | 0.9 | 0.00 | 1.08 | 0.49 | 95 | 1010.5 |
| 20260507074136 | 56 | 84 | 0.0 | 1.7 | 0.00 | 1.08 | 0.49 | 95 | 1010.5 |
| 20260507073635 | 56 | 84 | 0.0 | 1.7 | 0.00 | 1.08 | 0.49 | 95 | 1010.5 |
| 20260507073101 | 56 | 84 | 0.0 | 1.7 | 0.00 | 1.08 | 0.49 | 95 | 1010.2 |
| 20260507072600 | 56 | 86 | 0.9 | 1.7 | 0.00 | 1.08 | 0.49 | 95 | 1010.2 |
| 20260507072059 | 56 | 139 | 0.0 | 0.9 | 0.00 | 1.08 | 0.49 | 95 | 1010.2 |
| 20260507071558 | 57 | 143 | 0.0 | 0.9 | 0.00 | 1.08 | 0.49 | 95 | 1010.2 |
| 20260507071055 | 57 | 142 | 0.9 | 0.9 | 0.00 | 1.08 | 0.49 | 95 | 1010.2 |
| 20260507070554 | 57 | 160 | 0.0 | 0.9 | 0.00 | 1.08 | 0.49 | 95 | 1010.2 |
| 20260507070020 | 57 | 161 | 0.0 | 0.0 | 0.00 | 1.08 | 0.49 | 95 | 1009.8 |
| 20260507065456 | 57 | 161 | 0.0 | 0.0 | 0.00 | 1.08 | 0.49 | 95 | 1009.8 |
| 20260507064955 | 57 | 160 | 0.0 | 0.0 | 0.00 | 1.08 | 0.49 | 95 | 1010.2 |
| 20260507064454 | 57 | 161 | 0.0 | 0.0 | 0.00 | 1.08 | 0.49 | 95 | 1010.5 |
| 20260507063953 | 57 | 160 | 0.0 | 0.0 | 0.00 | 1.08 | 0.49 | 95 | 1010.5 |
| 20260507063452 | 57 | 160 | 0.0 | 0.9 | 0.00 | 1.08 | 0.49 | 95 | 1010.8 |
| 20260507062951 | 57 | 160 | 0.0 | 0.9 | 0.00 | 1.08 | 0.49 | 95 | 1010.8 |
| 20260507062450 | 57 | 160 | 0.0 | 1.7 | 0.00 | 1.08 | 0.49 | 95 | 1010.8 |
| 20260507061916 | 57 | 203 | 0.0 | 1.7 | 0.00 | 1.08 | 0.49 | 95 | 1010.8 |
| 20260507061416 | 57 | 203 | 0.9 | 1.7 | 0.00 | 1.08 | 0.49 | 95 | 1010.8 |
| 20260507060915 | 57 | 188 | 1.7 | 1.7 | 0.00 | 1.08 | 0.49 | 95 | 1010.5 |
| 20260507060413 | 57 | 99 | 0.0 | 2.6 | 0.00 | 1.08 | 0.49 | 95 | 1010.5 |
| 20260507055840 | 57 | 177 | 0.9 | 2.6 | 0.00 | 1.08 | 0.49 | 95 | 1010.2 |
| 20260507055307 | 57 | 280 | 0.9 | 5.2 | 0.00 | 1.08 | 0.49 | 95 | 1010.2 |
| 20260507054806 | 58 | 42 | 0.9 | 5.2 | 0.00 | 1.08 | 0.49 | 95 | 1010.2 |
| 20260507054304 | 58 | 280 | 0.0 | 5.2 | 0.00 | 1.08 | 0.49 | 95 | 1010.5 |
| 20260507053802 | 58 | 37 | 1.7 | 5.2 | 0.00 | 1.08 | 0.49 | 95 | 1010.5 |
| 20260507053301 | 59 | 43 | 1.7 | 4.3 | 0.00 | 1.08 | 0.49 | 95 | 1010.5 |
| 20260507052800 | 59 | 56 | 1.7 | 4.3 | 0.00 | 1.08 | 0.49 | 95 | 1010.5 |
| 20260507052259 | 59 | 57 | 0.9 | 2.6 | 0.00 | 1.08 | 0.49 | 95 | 1010.8 |
| 20260507051757 | 59 | 36 | 0.9 | 2.6 | 0.00 | 1.08 | 0.49 | 95 | 1010.8 |
| 20260507051256 | 59 | 66 | 0.9 | 3.5 | 0.00 | 1.08 | 0.49 | 95 | 1010.8 |
| 20260507050755 | 59 | 3 | 0.0 | 3.5 | 0.00 | 1.08 | 0.49 | 95 | 1010.8 |
| 20260507050253 | 59 | 44 | 0.9 | 2.6 | 0.00 | 1.08 | 0.49 | 95 | 1010.8 |
| 20260507045751 | 59 | 41 | 0.0 | 2.6 | 0.00 | 1.08 | 0.49 | 95 | 1010.5 |
| 20260507045249 | 59 | 40 | 0.9 | 2.6 | 0.00 | 1.08 | 0.49 | 95 | 1010.5 |
| 20260507044746 | 59 | 44 | 0.9 | 2.6 | 0.00 | 1.08 | 0.49 | 95 | 1010.5 |
| 20260507044244 | 59 | 44 | 1.7 | 2.6 | 0.00 | 1.08 | 0.49 | 95 | 1010.8 |
| 20260507043712 | 60 | 5 | 0.0 | 0.0 | 0.00 | 1.08 | 0.49 | 95 | 1010.8 |
| 20260507043210 | 60 | 4 | 0.0 | 0.9 | 0.00 | 1.08 | 0.49 | 95 | 1010.8 |
| 20260507042708 | 60 | 5 | 0.0 | 0.9 | 0.00 | 1.08 | 0.49 | 95 | 1010.8 |
| 20260507042207 | 60 | 5 | 0.0 | 0.9 | 0.00 | 1.08 | 0.49 | 95 | 1010.8 |
| 20260507041705 | 60 | 5 | 0.9 | 0.9 | 0.00 | 1.08 | 0.49 | 95 | 1010.5 |
| 20260507041204 | 60 | 4 | 0.0 | 0.9 | 0.00 | 1.08 | 0.49 | 95 | 1010.5 |
| 20260507040703 | 60 | 5 | 0.0 | 0.9 | 0.00 | 1.08 | 0.49 | 95 | 1010.5 |
| 20260507040129 | 60 | 5 | 0.0 | 0.9 | 0.00 | 1.08 | 0.49 | 95 | 1010.5 |
| 20260507035628 | 60 | 5 | 0.9 | 0.9 | 0.00 | 1.08 | 0.49 | 95 | 1010.5 |
| 20260507035127 | 60 | 7 | 0.9 | 0.9 | 0.00 | 1.08 | 0.49 | 95 | 1010.8 |
| 20260507034626 | 60 | 356 | 0.0 | 1.7 | 0.00 | 1.08 | 0.49 | 95 | 1010.8 |
| 20260507034125 | 60 | 355 | 0.0 | 1.7 | 0.00 | 1.08 | 0.49 | 95 | 1010.8 |
| 20260507033623 | 60 | 355 | 0.0 | 2.6 | 0.00 | 1.08 | 0.49 | 95 | 1010.5 |
| 20260507033121 | 60 | 24 | 0.9 | 2.6 | 0.00 | 1.08 | 0.49 | 95 | 1010.5 |
| 20260507032620 | 60 | 42 | 0.9 | 2.6 | 0.00 | 1.08 | 0.49 | 95 | 1010.5 |
| 20260507032119 | 61 | 42 | 0.0 | 2.6 | 0.00 | 1.08 | 0.49 | 95 | 1010.2 |
| 20260507031618 | 61 | 73 | 0.9 | 1.7 | 0.00 | 1.08 | 0.49 | 95 | 1010.5 |
| 20260507031117 | 61 | 54 | 0.9 | 1.7 | 0.00 | 1.08 | 0.49 | 95 | 1010.8 |
| 20260507030616 | 61 | 86 | 0.9 | 0.9 | 0.00 | 1.08 | 0.49 | 95 | 1010.8 |
| 20260507030115 | 61 | 61 | 0.0 | 0.9 | 0.00 | 1.08 | 0.49 | 95 | 1010.8 |
| 20260507025612 | 61 | 60 | 0.0 | 0.9 | 0.00 | 1.08 | 0.49 | 95 | 1010.5 |
| 20260507025110 | 61 | 61 | 0.0 | 0.9 | 0.00 | 1.08 | 0.49 | 95 | 1010.5 |
| 20260507024537 | 61 | 61 | 0.0 | 1.7 | 0.00 | 1.08 | 0.49 | 95 | 1010.8 |
| 20260507024004 | 61 | 63 | 0.9 | 1.7 | 0.00 | 1.08 | 0.49 | 95 | 1010.8 |
| 20260507023503 | 61 | 58 | 0.0 | 0.9 | 0.00 | 1.08 | 0.49 | 95 | 1010.8 |
| 20260507023000 | 61 | 58 | 0.0 | 0.9 | 0.00 | 1.08 | 0.49 | 95 | 1011.2 |
| 20260507022459 | 61 | 58 | 0.0 | 0.9 | 0.00 | 1.08 | 0.49 | 95 | 1011.2 |
| 20260507021957 | 61 | 58 | 0.0 | 0.9 | 0.00 | 1.08 | 0.49 | 95 | 1011.2 |
| 20260507021423 | 62 | 58 | 0.0 | 0.9 | 0.00 | 1.08 | 0.49 | 95 | 1011.2 |
| 20260507020920 | 62 | 58 | 0.9 | 0.9 | 0.00 | 1.08 | 0.49 | 95 | 1011.2 |
| 20260507020418 | 62 | 58 | 0.0 | 0.9 | 0.00 | 1.08 | 0.49 | 95 | 1010.5 |
| 20260507015917 | 62 | 58 | 0.0 | 1.7 | 0.00 | 1.08 | 0.49 | 95 | 1010.5 |
| 20260507015416 | 62 | 49 | 0.0 | 1.7 | 0.00 | 1.08 | 0.49 | 95 | 1010.8 |
| 20260507014915 | 62 | 38 | 0.0 | 0.9 | 0.00 | 1.08 | 0.49 | 95 | 1010.8 |
| 20260507014412 | 63 | 38 | 0.0 | 0.9 | 0.00 | 1.08 | 0.49 | 95 | 1010.5 |
| 20260507013840 | 63 | 38 | 0.0 | 1.7 | 0.00 | 1.08 | 0.49 | 95 | 1010.8 |
| 20260507013339 | 63 | 39 | 0.0 | 1.7 | 0.00 | 1.08 | 0.49 | 95 | 1010.5 |
| 20260507012838 | 63 | 39 | 0.0 | 1.7 | 0.00 | 1.08 | 0.49 | 95 | 1010.5 |
| 20260507012337 | 64 | 63 | 0.9 | 1.7 | 0.01 | 1.08 | 0.49 | 95 | 1010.5 |
| 20260507011836 | 64 | 102 | 0.9 | 0.9 | 0.01 | 1.08 | 0.49 | 95 | 1010.5 |
| 20260507011334 | 64 | 101 | 0.9 | 0.9 | 0.02 | 1.08 | 0.49 | 95 | 1010.8 |
| 20260507010833 | 64 | 101 | 0.0 | 0.0 | 0.03 | 1.08 | 0.49 | 95 | 1010.8 |
| 20260507010331 | 64 | 101 | 0.0 | 0.0 | 0.04 | 1.08 | 0.49 | 95 | 1010.5 |
| 20260507005830 | 64 | 101 | 0.0 | 0.9 | 0.05 | 1.08 | 0.49 | 95 | 1010.8 |
| 20260507005329 | 64 | 101 | 0.0 | 0.9 | 0.05 | 1.08 | 0.49 | 95 | 1011.2 |
| 20260507004827 | 64 | 102 | 0.0 | 0.9 | 0.08 | 1.08 | 0.49 | 95 | 1010.5 |
| 20260507004325 | 64 | 102 | 0.9 | 3.5 | 0.10 | 1.08 | 0.49 | 95 | 1009.8 |
| 20260507003823 | 64 | 101 | 0.9 | 7.0 | 0.11 | 1.08 | 0.49 | 95 | 1009.8 |
| 20260507003322 | 64 | 125 | 0.0 | 7.0 | 0.12 | 1.08 | 0.49 | 95 | 1009.8 |
| 20260507002821 | 64 | 125 | 0.9 | 7.0 | 0.13 | 1.08 | 0.49 | 95 | 1009.5 |
| 20260507002319 | 64 | 82 | 2.6 | 7.0 | 0.12 | 1.07 | 0.48 | 95 | 1010.8 |
| 20260507001818 | 64 | 221 | 0.9 | 3.5 | 0.13 | 1.07 | 0.48 | 95 | 1011.9 |
| 20260507001317 | 64 | 208 | 0.9 | 3.5 | 0.13 | 1.06 | 0.47 | 95 | 1011.2 |
| 20260507000815 | 64 | 184 | 1.7 | 4.3 | 0.12 | 1.05 | 0.46 | 95 | 1011.2 |
| 20260507000242 | 64 | 248 | 0.9 | 5.2 | 0.10 | 1.03 | 0.44 | 95 | 1010.5 |
| 20260506235739 | 64 | 232 | 1.7 | 5.2 | 0.10 | 1.03 | 0.44 | 95 | 1010.2 |
| 20260506235237 | 64 | 226 | 1.7 | 4.3 | 0.09 | 1.02 | 0.43 | 95 | 1010.2 |
| 20260506234735 | 65 | 223 | 1.7 | 4.3 | 0.07 | 1.00 | 0.41 | 95 | 1010.5 |
| 20260506234234 | 65 | 356 | 0.0 | 0.9 | 0.05 | 0.98 | 0.39 | 95 | 1010.2 |
| 20260506233733 | 65 | 355 | 0.0 | 0.9 | 0.04 | 0.97 | 0.38 | 95 | 1009.5 |
| 20260506233232 | 65 | 352 | 0.9 | 1.7 | 0.03 | 0.96 | 0.37 | 95 | 1009.5 |
| 20260506232731 | 65 | 242 | 0.0 | 2.6 | 0.02 | 0.95 | 0.36 | 95 | 1009.8 |
| 20260506232230 | 65 | 248 | 0.0 | 6.1 | 0.02 | 0.95 | 0.36 | 95 | 1009.8 |
| 20260506231728 | 65 | 31 | 0.9 | 6.1 | 0.00 | 0.93 | 0.34 | 95 | 1009.8 |
| 20260506231155 | 65 | 240 | 0.9 | 7.0 | 0.00 | 0.93 | 0.34 | 95 | 1010.2 |
| 20260506230654 | 65 | 231 | 2.6 | 7.0 | 0.01 | 0.93 | 0.34 | 95 | 1010.2 |
| 20260506230153 | 65 | 211 | 1.7 | 4.3 | 0.02 | 0.93 | 0.34 | 95 | 1009.8 |
| 20260506225619 | 65 | 193 | 1.7 | 4.3 | 0.03 | 0.93 | 0.34 | 95 | 1009.8 |
| 20260506225118 | 66 | 242 | 1.7 | 4.3 | 0.04 | 0.93 | 0.34 | 95 | 1010.2 |
| 20260506224616 | 66 | 176 | 0.9 | 2.6 | 0.04 | 0.93 | 0.34 | 95 | 1009.8 |
| 20260506224115 | 66 | 222 | 0.9 | 1.7 | 0.05 | 0.93 | 0.34 | 95 | 1009.5 |
| 20260506223613 | 66 | 83 | 0.0 | 3.5 | 0.06 | 0.93 | 0.34 | 95 | 1009.1 |
| 20260506223112 | 66 | 80 | 0.9 | 3.5 | 0.08 | 0.93 | 0.34 | 95 | 1009.1 |
| 20260506222610 | 66 | 204 | 0.9 | 7.0 | 0.09 | 0.93 | 0.34 | 95 | 1009.1 |
| 20260506221901 | 66 | 149 | 0.9 | 7.0 | 0.10 | 0.93 | 0.34 | 95 | 1008.8 |
| 20260506221359 | 66 | 99 | 1.7 | 7.0 | 0.11 | 0.93 | 0.34 | 95 | 1009.1 |
| 20260506220858 | 66 | 204 | 1.7 | 7.0 | 0.11 | 0.93 | 0.34 | 95 | 1009.8 |
| 20260506220357 | 66 | 231 | 3.5 | 6.1 | 0.11 | 0.92 | 0.33 | 95 | 1009.1 |
| 20260506215855 | 67 | 215 | 1.7 | 3.5 | 0.11 | 0.90 | 0.32 | 95 | 1008.8 |
| 20260506215353 | 67 | 231 | 1.7 | 3.5 | 0.11 | 0.89 | 0.30 | 95 | 1009.1 |
| 20260506214852 | 67 | 211 | 1.7 | 2.6 | 0.11 | 0.89 | 0.30 | 95 | 1009.1 |
| 20260506214351 | 67 | 122 | 0.9 | 5.2 | 0.11 | 0.89 | 0.30 | 95 | 1009.1 |
| 20260506213850 | 67 | 203 | 0.9 | 5.2 | 0.10 | 0.87 | 0.28 | 95 | 1009.1 |
| 20260506213348 | 67 | 284 | 0.9 | 6.1 | 0.10 | 0.86 | 0.27 | 95 | 1009.1 |
| 20260506212847 | 67 | 229 | 2.6 | 6.1 | 0.09 | 0.85 | 0.26 | 95 | 1009.5 |
| 20260506212346 | 67 | 193 | 1.7 | 4.3 | 0.09 | 0.84 | 0.25 | 95 | 1009.1 |
| 20260506211845 | 67 | 238 | 1.7 | 4.3 | 0.08 | 0.83 | 0.24 | 95 | 1008.5 |
| 20260506211343 | 67 | 95 | 0.9 | 4.3 | 0.08 | 0.82 | 0.23 | 94 | 1008.8 |
| 20260506210841 | 67 | 230 | 0.9 | 4.3 | 0.09 | 0.82 | 0.23 | 95 | 1009.5 |
| 20260506210340 | 67 | 143 | 0.9 | 7.0 | 0.08 | 0.81 | 0.22 | 94 | 1009.5 |
| 20260506205839 | 67 | 222 | 0.9 | 7.0 | 0.07 | 0.79 | 0.20 | 95 | 1009.1 |
| 20260506205338 | 67 | 238 | 1.7 | 7.8 | 0.06 | 0.78 | 0.19 | 95 | 1009.8 |
| 20260506204835 | 67 | 218 | 1.7 | 7.8 | 0.07 | 0.78 | 0.19 | 95 | 1008.8 |
| 20260506204334 | 67 | 220 | 1.7 | 6.1 | 0.09 | 0.78 | 0.19 | 95 | 1008.5 |
| 20260506203833 | 67 | 203 | 1.7 | 4.3 | 0.08 | 0.77 | 0.18 | 95 | 1008.5 |
| 20260506203332 | 67 | 228 | 0.9 | 4.3 | 0.08 | 0.76 | 0.17 | 95 | 1008.5 |
| 20260506202830 | 67 | 220 | 1.7 | 4.3 | 0.10 | 0.76 | 0.17 | 95 | 1008.5 |
| 20260506202329 | 67 | 237 | 0.9 | 4.3 | 0.09 | 0.75 | 0.16 | 95 | 1008.5 |
| 20260506201755 | 67 | 202 | 0.9 | 4.3 | 0.09 | 0.75 | 0.16 | 95 | 1009.1 |
| 20260506201254 | 67 | 224 | 1.7 | 4.3 | 0.08 | 0.74 | 0.15 | 95 | 1009.5 |
| 20260506200753 | 67 | 205 | 1.7 | 5.2 | 0.08 | 0.73 | 0.14 | 94 | 1009.5 |
| 20260506200252 | 67 | 238 | 1.7 | 5.2 | 0.09 | 0.73 | 0.14 | 95 | 1009.5 |
| 20260506195751 | 67 | 188 | 0.9 | 3.5 | 0.08 | 0.72 | 0.13 | 94 | 1009.5 |
| 20260506195250 | 67 | 200 | 0.0 | 4.3 | 0.07 | 0.71 | 0.12 | 94 | 1009.8 |
| 20260506194748 | 67 | 230 | 0.9 | 4.3 | 0.08 | 0.71 | 0.12 | 94 | 1010.2 |
| 20260506194247 | 67 | 240 | 1.7 | 5.2 | 0.06 | 0.69 | 0.10 | 94 | 1010.2 |
| 20260506193746 | 67 | 223 | 2.6 | 5.2 | 0.07 | 0.69 | 0.10 | 94 | 1010.2 |
| 20260506193245 | 67 | 238 | 2.6 | 4.3 | 0.05 | 0.67 | 0.08 | 94 | 1009.8 |
| 20260506192713 | 67 | 123 | 0.9 | 2.6 | 0.04 | 0.66 | 0.07 | 94 | 1009.5 |
| 20260506192212 | 67 | 265 | 1.7 | 2.6 | 0.05 | 0.66 | 0.07 | 94 | 1009.5 |
| 20260506191710 | 67 | 273 | 0.9 | 3.5 | 0.06 | 0.66 | 0.07 | 94 | 1009.8 |
| 20260506191209 | 67 | 209 | 0.9 | 4.3 | 0.06 | 0.65 | 0.07 | 94 | 1009.8 |
| 20260506190706 | 67 | 175 | 0.9 | 4.3 | 0.06 | 0.65 | 0.06 | 94 | 1010.2 |
| 20260506190206 | 67 | 235 | 1.7 | 4.3 | 0.05 | 0.64 | 0.05 | 94 | 1010.2 |
| 20260506185705 | 67 | 230 | 1.7 | 3.5 | 0.05 | 0.64 | 0.05 | 94 | 1009.8 |
| 20260506185204 | 67 | 226 | 0.9 | 3.5 | 0.05 | 0.64 | 0.05 | 94 | 1009.8 |
| 20260506184702 | 67 | 248 | 1.7 | 4.3 | 0.04 | 0.63 | 0.04 | 94 | 1010.2 |
| 20260506184200 | 67 | 193 | 1.7 | 5.2 | 0.04 | 0.63 | 0.04 | 94 | 1010.5 |
| 20260506183659 | 67 | 231 | 1.7 | 5.2 | 0.03 | 0.62 | 0.03 | 93 | 1010.5 |
| 20260506183158 | 67 | 143 | 0.9 | 5.2 | 0.03 | 0.62 | 0.03 | 93 | 1010.5 |
| 20260506182555 | 68 | 280 | 1.7 | 5.2 | 0.02 | 0.61 | 0.02 | 92 | 1010.2 |
| 20260506182053 | 68 | 195 | 0.9 | 4.3 | 0.01 | 0.60 | 0.01 | 91 | 1010.2 |
| 20260506181520 | 69 | 215 | 1.7 | 5.2 | 0.00 | 0.59 | 0.00 | 90 | 1010.8 |
| 20260506180917 | 69 | 220 | 1.7 | 5.2 | 0.00 | 0.59 | 0.00 | 89 | 1010.5 |
| 20260506180416 | 69 | 199 | 0.9 | 6.1 | 0.00 | 0.59 | 0.00 | 89 | 1010.8 |
| 20260506175915 | 69 | 238 | 1.7 | 6.1 | 0.00 | 0.59 | 0.00 | 87 | 1010.8 |
| 20260506175414 | 69 | 204 | 1.7 | 6.1 | 0.00 | 0.59 | 0.00 | 87 | 1010.8 |
| 20260506174913 | 69 | 221 | 1.7 | 6.1 | 0.00 | 0.59 | 0.00 | 87 | 1010.8 |
| 20260506174412 | 70 | 233 | 1.7 | 4.3 | 0.00 | 0.59 | 0.00 | 87 | 1010.8 |
| 20260506173839 | 70 | 235 | 1.7 | 7.0 | 0.00 | 0.59 | 0.00 | 86 | 1010.8 |
| 20260506173338 | 70 | 240 | 1.7 | 7.0 | 0.00 | 0.59 | 0.00 | 86 | 1010.8 |
| 20260506172837 | 70 | 213 | 1.7 | 7.8 | 0.00 | 0.59 | 0.00 | 86 | 1010.5 |
| 20260506172202 | 70 | 237 | 3.5 | 7.8 | 0.00 | 0.59 | 0.00 | 85 | 1010.5 |
| 20260506171630 | 70 | 199 | 2.6 | 6.1 | 0.00 | 0.59 | 0.00 | 88 | 1010.5 |
| 20260506171129 | 70 | 188 | 1.7 | 6.1 | 0.00 | 0.59 | 0.00 | 88 | 1010.5 |
| 20260506170628 | 70 | 221 | 3.5 | 6.1 | 0.00 | 0.59 | 0.00 | 87 | 1010.5 |
| 20260506170056 | 70 | 255 | 1.7 | 6.1 | 0.00 | 0.59 | 0.00 | 87 | 1010.5 |
| 20260506165554 | 70 | 238 | 0.9 | 6.1 | 0.00 | 0.59 | 0.00 | 89 | 1010.5 |
| 20260506165053 | 70 | 221 | 2.6 | 6.1 | 0.00 | 0.59 | 0.00 | 87 | 1010.2 |
| 20260506164551 | 69 | 245 | 2.6 | 8.7 | 0.00 | 0.59 | 0.00 | 88 | 1010.2 |
| 20260506164050 | 69 | 234 | 3.5 | 8.7 | 0.00 | 0.59 | 0.00 | 87 | 1010.2 |
| 20260506163549 | 69 | 216 | 2.6 | 9.6 | 0.00 | 0.59 | 0.00 | 86 | 1010.2 |
| 20260506163048 | 70 | 230 | 3.5 | 9.6 | 0.00 | 0.59 | 0.00 | 87 | 1010.2 |
| 20260506162547 | 70 | 227 | 2.6 | 9.6 | 0.00 | 0.59 | 0.00 | 86 | 1010.2 |
| 20260506162046 | 70 | 222 | 2.6 | 9.6 | 0.00 | 0.59 | 0.00 | 87 | 1009.8 |
| 20260506161512 | 69 | 211 | 2.6 | 9.6 | 0.00 | 0.59 | 0.00 | 89 | 1010.2 |
| 20260506161011 | 69 | 193 | 2.6 | 9.6 | 0.00 | 0.59 | 0.00 | 91 | 1010.2 |
| 20260506160439 | 68 | 252 | 3.5 | 9.6 | 0.00 | 0.59 | 0.00 | 90 | 1009.8 |
| 20260506155938 | 68 | 235 | 2.6 | 7.0 | 0.00 | 0.59 | 0.59 | 91 | 1010.2 |
| 20260506155436 | 68 | 240 | 3.5 | 7.8 | 0.01 | 0.59 | 0.59 | 92 | 1010.2 |
| 20260506154935 | 67 | 246 | 1.7 | 7.8 | 0.01 | 0.59 | 0.59 | 92 | 1010.2 |
| 20260506154434 | 67 | 30 | 1.7 | 8.7 | 0.02 | 0.59 | 0.59 | 94 | 1009.8 |
| 20260506153932 | 66 | 214 | 3.5 | 8.7 | 0.02 | 0.59 | 0.59 | 94 | 1009.8 |
| 20260506153431 | 66 | 206 | 1.7 | 5.2 | 0.04 | 0.59 | 0.59 | 94 | 1010.2 |
| 20260506152859 | 65 | 217 | 1.7 | 7.0 | 0.05 | 0.59 | 0.59 | 94 | 1010.2 |
| 20260506152357 | 65 | 110 | 1.7 | 7.0 | 0.06 | 0.59 | 0.59 | 95 | 1010.2 |
| 20260506151855 | 64 | 237 | 2.6 | 7.8 | 0.06 | 0.59 | 0.59 | 95 | 1010.2 |
| 20260506151354 | 64 | 236 | 2.6 | 7.8 | 0.07 | 0.59 | 0.59 | 95 | 1010.2 |
| 20260506150853 | 64 | 134 | 1.7 | 7.8 | 0.07 | 0.59 | 0.59 | 95 | 1009.8 |
| 20260506150352 | 63 | 184 | 1.7 | 7.8 | 0.08 | 0.59 | 0.59 | 95 | 1010.2 |
| 20260506145850 | 63 | 243 | 1.7 | 8.7 | 0.09 | 0.59 | 0.59 | 95 | 1010.5 |
| 20260506145318 | 63 | 199 | 2.6 | 8.7 | 0.09 | 0.58 | 0.58 | 95 | 1010.8 |
| 20260506144817 | 63 | 185 | 0.9 | 5.2 | 0.10 | 0.58 | 0.58 | 95 | 1010.5 |
| 20260506144314 | 63 | 240 | 1.7 | 5.2 | 0.11 | 0.57 | 0.57 | 95 | 1010.8 |
| 20260506143813 | 63 | 184 | 1.7 | 5.2 | 0.12 | 0.57 | 0.57 | 95 | 1010.8 |